TimeEET,TemperatureF,Dew PointF,Humidity,Sea Level PressureIn,VisibilityMPH,Wind Direction,Wind SpeedMPH,Gust SpeedMPH,PrecipitationIn,Events,Conditions,WindDirDegrees,DateUTC
12:50 AM,33.8,23.0,65,30.15,-9999.0,North,8.1,-,N/A,,Clear,10,2013-02-12 22:50:00
1:50 AM,30.2,24.8,80,30.15,-9999.0,Variable,1.2,-,N/A,,Clear,0,2013-02-12 23:50:00
2:00 AM,31,24,64,,6,WSW,1.2,,,,,250,2013-02-13 00:00:00
2:50 AM,28.4,23.0,80,30.15,-9999.0,Calm,Calm,-,N/A,,Clear,0,2013-02-13 00:50:00
3:50 AM,26.6,24.8,93,30.18,-9999.0,NNE,4.6,-,N/A,,Clear,30,2013-02-13 01:50:00
4:50 AM,24.8,23.0,93,30.18,-9999.0,Calm,Calm,-,N/A,,Clear,0,2013-02-13 02:50:00
5:50 AM,26.6,24.8,93,30.21,-9999.0,NNE,2.3,-,N/A,,Clear,30,2013-02-13 03:50:00
6:50 AM,24.8,23.0,93,30.21,-9999.0,Calm,Calm,-,N/A,,Clear,0,2013-02-13 04:50:00
7:50 AM,32.0,26.6,80,30.24,-9999.0,Calm,Calm,-,N/A,,Clear,0,2013-02-13 05:50:00
8:00 AM,31,25,71,,6,Calm,Calm,,,,,,2013-02-13 06:00:00
8:50 AM,35.6,24.8,65,30.24,-9999.0,SSW,3.5,-,N/A,,Clear,210,2013-02-13 06:50:00
9:50 AM,39.2,26.6,61,30.24,-9999.0,Variable,2.3,-,N/A,,Clear,0,2013-02-13 07:50:00
10:50 AM,41.0,24.8,53,30.24,-9999.0,Variable,1.2,-,N/A,,Clear,0,2013-02-13 08:50:00
11:50 AM,44.6,24.8,46,30.21,-9999.0,Variable,2.3,-,N/A,,Clear,0,2013-02-13 09:50:00
12:50 PM,46.4,24.8,43,30.21,-9999.0,Variable,3.5,-,N/A,,Clear,0,2013-02-13 10:50:00
1:50 PM,46.4,24.8,43,30.21,-9999.0,Variable,2.3,-,N/A,,Clear,0,2013-02-13 11:50:00
2:00 PM,47,25,28,,12,South,2.3,,,,,180,2013-02-13 12:00:00
2:50 PM,48.2,24.8,40,30.18,-9999.0,SSW,3.5,-,N/A,,Clear,200,2013-02-13 12:50:00
3:50 PM,48.2,24.8,40,30.18,-9999.0,Variable,1.2,-,N/A,,Clear,0,2013-02-13 13:50:00
4:50 PM,44.6,24.8,46,30.21,-9999.0,WSW,3.5,-,N/A,,Clear,250,2013-02-13 14:50:00
5:50 PM,37.4,24.8,60,30.21,-9999.0,ESE,5.8,-,N/A,,Clear,120,2013-02-13 15:50:00
6:50 PM,35.6,24.8,65,30.24,-9999.0,Variable,1.2,-,N/A,,Clear,0,2013-02-13 16:50:00
7:50 PM,33.8,24.8,70,30.24,-9999.0,ESE,2.3,-,N/A,,Clear,120,2013-02-13 17:50:00
8:00 PM,35,24,54,,6,ESE,2.3,,,,,120,2013-02-13 18:00:00
8:50 PM,33.8,24.8,70,30.24,-9999.0,SSE,3.5,-,N/A,,Clear,150,2013-02-13 18:50:00
9:50 PM,33.8,24.8,70,30.24,-9999.0,Variable,1.2,-,N/A,,Clear,0,2013-02-13 19:50:00
10:50 PM,32.0,24.8,75,30.27,-9999.0,Variable,1.2,-,N/A,,Clear,0,2013-02-13 20:50:00
11:50 PM,32.0,24.8,75,30.27,-9999.0,East,3.5,-,N/A,,Clear,100,2013-02-13 21:50:00